Regional Weather Roundup
Issued by NWS

Home | Current Version | Previous Version | Graphics & Text | Print | Product List | Glossary On
Versions: 1 2 3 4 5 6 7 8 9 10 11 12 13 14 15 16 17 18 19 20 21 22 23 24 25 26 27 28 29 30 31 32 33 34 35 36 37 38 39 40 41 42 43 44 45 46 47 48 49 50
000
ASUS43 KIND 021209
RWRIN

WEATHER ROUNDUP FOR INDIANA
NATIONAL WEATHER SERVICE INDIANAPOLIS IN
800 AM EDT TUE SEP 02 2014

NOTE: "FAIR" INDICATES FEW OR NO CLOUDS BELOW 12,000 FEET WITH NO
SIGNIFICANT WEATHER AND/OR OBSTRUCTIONS TO VISIBILITY.

* - STATION DOES NOT REPORT WEATHER SUCH AS PRECIPITATION OR FOG.

+ - STATION NOT QUALITY CONTROLLED BY THE NATIONAL WEATHER SERVICE.
    USE DATA WITH CAUTION...ESPECIALLY DEWPOINT AND RELATIVE
    HUMIDITY OBSERVATIONS.

INZ001>003-010>013-019-020-021300-
NORTHWEST INDIANA

CITY           SKY/WX    TMP DP  RH WIND       PRES   REMARKS
GARY /AIRPORT/ MOCLDY    70  68  94 S5        29.88S
KNOX *+        CLOUDY    67  63  86 SW3       29.89S
LA PORTE +     CLOUDY    67  67 100 NW6       29.90S
6HR MIN TEMP:  66; 6HR MAX TEMP:  69;

MICHIGAN CITY+ CLOUDY    66  64  94 S3        29.89R
MONTICELLO +   CLOUDY    67  66  97 SW6       29.91R
RENSSELAER +   CLOUDY    68  68 100 SW5       29.90F
VALPARAISO     CLOUDY    69  67  93 SW8       29.90R
6HR MIN TEMP:  68; 6HR MAX TEMP:  71; 6HR PCP:  0.01;


$$

LMZ046-743>745-021300-
SOUTHERN LAKE MICHIGAN

STATION/POSITION TIME  TEMP WIND        PRES
                       AIR  DIR/SP/G
                 (UTC) (F)  (DEG/KT/KT) (MB)
MICHIGAN CITY    1200   69  160/  6/  9   N/A

$$

INZ004-005-014>016-021>024-021300-
NORTH CENTRAL INDIANA

CITY           SKY/WX    TMP DP  RH WIND       PRES   REMARKS
ELKHART        CLOUDY    70  66  88 SW6       29.90R
GOSHEN         CLOUDY    69  65  86 SW8       29.90R
6HR MIN TEMP:  68; 6HR MAX TEMP:  71; 6HR PCP: TRACE;

LOGANSPORT +   CLOUDY    66  64  94 SW5       29.92R
PERU/GRISSOM   CLOUDY    67  67 100 W5        29.92R
6HR MIN TEMP:  66; 6HR MAX TEMP:  70; 6HR PCP:  0.24;

ROCHESTER +    CLOUDY    70  70 100 SW5       29.91S
SOUTH BEND     CLOUDY    70  66  87 SW9       29.89S
6HR MIN TEMP:  69; 6HR MAX TEMP:  71;

WARSAW +       DRIZZLE   68  64  88 SW3       29.90S

$$

INZ006>009-017-018-025>027-021300-
NORTHEAST INDIANA

CITY           SKY/WX    TMP DP  RH WIND       PRES   REMARKS
ANGOLA *+      CLOUDY    68  61  77 W5        29.89F
AUBURN +       CLOUDY    66  63  88 CALM      29.90F
FORT WAYNE     CLOUDY    67  65  93 SW7       29.91F
6HR MIN TEMP:  66; 6HR MAX TEMP:  70; 6HR PCP:  0.17;

HUNTINGTON +   MOCLDY    67  66  98 SW3       29.91R
6HR MIN TEMP:  66; 6HR MAX TEMP:  70; 6HR PCP:  0.20;


$$

INZ028-029-035-036-043>045-051>053-021300-
WEST CENTRAL INDIANA

CITY           SKY/WX    TMP DP  RH WIND       PRES   REMARKS
GREENCASTLE +  CLOUDY    64  64 100 CALM      29.94R
LAFAYETTE      CLOUDY    66  66 100 SW5       29.91S
6HR MIN TEMP:  66; 6HR MAX TEMP:  69; 6HR PCP:  0.20;

TERRE HAUTE    LGT RAIN  67  65  93 S6        29.91F
6HR MIN TEMP:  66; 6HR MAX TEMP:  68; 6HR PCP:  0.86;


$$

INZ030>032-037>040-046>048-054>057-064-065-021300-
CENTRAL INDIANA

CITY           SKY/WX    TMP DP  RH WIND       PRES   REMARKS
CP ATTERBURY + CLOUDY    64  63  94 SE6       29.96S
COLUMBUS       LGT RAIN  64  64 100 SE8       29.94F
FRANKFORT +    CLOUDY   N/A N/A N/A SW3       29.92F
INDIANAPOLIS   LGT RAIN  65  64  97 SW9       29.91R
6HR MIN TEMP:  65; 6HR MAX TEMP:  73; 6HR PCP:  1.00;

-EAGLE CREEK   CLOUDY    66  64  93 S8        29.91F
6HR MIN TEMP:  66; 6HR MAX TEMP:  72; 6HR PCP:  0.50;

KOKOMO *+      CLOUDY    66  63  88 SW8       29.92R
MARION +       CLOUDY    65  65  98 S9        29.92R
MT COMFORT *+  CLOUDY    64 N/A N/A S8        29.89F
SHELBYVILLE    CLOUDY    67  64  90 SE7       29.90F
6HR MIN TEMP:  67; 6HR MAX TEMP:  74; 6HR PCP:  1.55;

ZIONSVILLE +   CLOUDY    67  63  88 S3        29.92S
6HR MIN TEMP:  66; 6HR MAX TEMP:  72; 6HR PCP:  0.47;


$$

INZ033-034-041-042-049-050-058-059-021300-
EAST CENTRAL INDIANA

CITY           SKY/WX    TMP DP  RH WIND       PRES   REMARKS
MUNCIE         LGT RAIN  67  63  87 SW3       29.92F
6HR MIN TEMP:  67; 6HR MAX TEMP:  72; 6HR PCP:  0.38;


$$

INZ060-061-067>069-081>083-085>088-021300-
SOUTHWEST INDIANA

CITY           SKY/WX    TMP DP  RH WIND       PRES   REMARKS
EVANSVILLE     LGT RAIN  69  68  96 E5        29.97F
6HR MIN TEMP:  69; 6HR MAX TEMP:  79; 6HR PCP:  0.96;

WASHINGTON +   LGT RAIN  67  67 100 S9        29.95S
6HR MIN TEMP:  66; 6HR MAX TEMP:  78; 6HR PCP:  1.40;


$$

INZ062-063-066-070>080-084-089>092-021300-
SOUTH CENTRAL AND SOUTHEAST INDIANA

CITY           SKY/WX    TMP DP  RH WIND       PRES   REMARKS
BLOOMINGTON    CLOUDY    66  65  96 S6        29.95R
6HR MIN TEMP:  66; 6HR MAX TEMP:  75; 6HR PCP:  2.12;

NORTH VERNON + LGT RAIN  66  66 100 SE3       29.98

$$




USA.gov is the U.S. government's official web portal to all federal, state and local government web resources and services.